Showing default

COSMOS 2215, 22186

Orbit data source: Space-Track

COSMOS 2215, 22186 is a payload satellite owned by VKS (CIS) in LEO that was launched on Tue, 20 Oct 1992 UTC via a TSIKLON-3 launch vehicle from the Plesetsk Missile And Space Complex (PKMTR). Payload-class satellites include a variety of spacecraft equipped with specific instruments for various scientific and technological missions. These include communications satellites like Starlink; space stations such as the ISS; scientific satellites like the Hubble; Earth observation satellites from companies like Planet Labs, Umbra, and HawkEye 360; GPS; miniature CubeSats for education and research; and military/defense satellites.

Loading next visibility...
Identifier
22186, 1992-068E
Orbit
LEO
Country
Flag of CISCIS
Related business
Manufacturer
NPO PM
Mission
Defense Communications
Bus & Motor
STRELA-3, Unknown motor
Mass
225 kg wet, 225 kg dry
Launch date (UTC)
1992-10-20 (34 years ago)
Launch vehicle
TSIKLON-3
Launch site
Plesetsk Missile And Space Complex (PKMTR)
Object type
Payload
Rocket body
Debris
Shape & HBR
Cyl, 0.8 m
Radar Cross Section
1.257 m², Medium (>0.1 m² and < 1m²)

Expand to show TLE details & history
Last TLE update: 8 hours ago

TLE from 8 hours ago
0 COSMOS 2215
1 22186U 92068E   26126.17808791  .00000046  00000-0  19946-3 0  9994
2 22186  82.6040  39.3735 0011517 274.6123  85.3652 12.60961722543570
Epoch: 2026-05-06T04:16Z
TLE epoch observation values (Epoch: 2026-05-06T04:16:26.795Z)
Latitude
-0°
Longitude
111.21954°
Altitude
1,420.99 km
Speed
7.151 km/s
True Right ascension
02h 37m 29s
True Declination
0° 00' 00"
Sunlit
Object was in daylight at epoch
Visualization orbit readout
Latitude
Unknown
Longitude
Unknown
Altitude
Unknown
Speed
Unknown
Apparent Right ascension
Unknown
Apparent Declination
Unknown
Sunlit
N/A
Visualization observer readout
Local Sidereal Time
19:50:35
Azimuth
Unknown
Elevation
Unknown
Doppler factor
Unknown
Orbital elements
Apogee altitude
1,425.276 km
Perigee altitude
1,407.322 km
Semi-major axis
7,794.436 km
Eccentricity
0.00115
Inclination
82.604°
RAAN
39.3735°
Arg. of periapsis
274.6123°
True anomaly
85.49676°
Mean anomaly
85.3652°
Eccentric anomaly
85.43098°
Mean motion
3.15403 °/min
Orbital period
114.14 mins
BSTAR
0.00019946
Loading maneuver chart data...
Computing Atmospheric mass density...
Loading historical data...
Loading historical data...
Loading historical data...
Loading historical data...
Loading historical data...
Loading historical data...
Loading historical data...

Documentation

Showing up to 5 results
|